Regional Weather Roundup
Issued by NWS

Home | Current Version | Previous Version | Text Only | Print | Product List | Glossary On
Versions: 1 2 3 4 5 6 7 8 9 10 11 12 13 14 15 16 17 18 19 20 21 22 23 24 25 26 27 28 29 30 31 32 33 34 35 36 37 38 39 40 41 42 43 44 45 46 47 48 49 50
000
ASHW40 PHFO 170243
RWRHI

WEATHER ROUNDUP FOR HAWAII
NATIONAL WEATHER SERVICE HONOLULU HI
400 PM HST MON OCT 16 2017

THIS IS AN AUTOMATED REPORT THAT HAS NOT BEEN QUALITY CONTROLLED.

NOTE..."FAIR" INDICATES FEW OR NO CLOUDS BELOW 12,000 FEET WITH NO
SIGNIFICANT WEATHER AND/OR OBSTRUCTIONS TO VISIBILITY.

* - THESE SITES REPORT LIMITED FIELDS
# - BUOY DATA PROVIDED BY PACIFIC ISLANDS OCEAN OBSERVING SYSTEM.

HIZ001>004-170300-
KAUAI-NIIHAU-

CITY           SKY/WX    TMP DP  RH WIND       PRES   REMARKS
LIHUE APT      MOSUNNY   82  68  62 NE22G28   30.00S
PORT ALLEN*      N/A     84 N/A N/A NE24G33     N/A
POIPU*           N/A     82 N/A N/A NE12G24     N/A
PRINCEVILLE*     N/A     79 N/A N/A E15G25      N/A
KOKOLE POINT*  NOT AVBL
MOLOAA DAIRY*    N/A     81  66  61 E7G15       N/A
WAIMEA HTS*      N/A    N/A N/A N/A NE10G20     N/A
PUU OPAE*        N/A     73  57  56 E8G16       N/A
PUU LUA*       NOT AVBL
MAKAHA RIDGE*    N/A    N/A N/A N/A N3G10       N/A
$$

HIZ005>011-170300-
OAHU-

CITY           SKY/WX    TMP DP  RH WIND       PRES   REMARKS
HONOLULU       LGT RAIN  82  64  54 NE18G30   29.96R
KALAELOA       MOSUNNY   84  62  47 E14G25    29.95S
KANEOHE MCB    PTSUNNY   79  68  69 E14       29.95
WHEELER FIELD  LGT RAIN  73  68  83 E9        29.99R
BELLOWS*         N/A    N/A N/A N/A NE24        N/A
KAHUKU*          N/A    N/A N/A N/A NE9G20      N/A
WHEELER*         N/A    N/A N/A N/A NE3G10      N/A
WAIANAE HARBOR   N/A    N/A N/A N/A NE9G22      N/A
DILLINGHAM*      N/A     81  68  65 SW9G21      N/A
KAHUKU TRN*      N/A     82  73  74 W15G26      N/A
KAWAILOA*        N/A     73  66  78 E16G24      N/A
KII*             N/A     79  68  69 NE18G31     N/A
MAKUA RANGE*     N/A     88  70  55 NW8G23      N/A  HX  92
OAHU FOREST NW NOT AVBL
SCHOFIELD BRK*   N/A     75  63  64 MISG        N/A
SCHOFIELD S*   NOT AVBL
WAIANAE VLY*   NOT AVBL
KUAOKALA*      NOT AVBL
HONOULIUULI*   NOT AVBL
MOKUOLOE IS*   NOT AVBL
PALEHUA*       NOT AVBL
WAIAWA PHB*    NOT AVBL
$$

HIZ012>013-170300-
MOLOKAI-

CITY           SKY/WX    TMP DP  RH WIND       PRES   REMARKS
MOLOKAI AIRPT  PTSUNNY   81  66  60 NE15G28   29.97S
KALAUPAPA      NOT AVBL
MAKAPULAPAI*     N/A     81  66  61 E23G32      N/A
MOLOKAI 1*     NOT AVBL
PUU ALII*        N/A     61  60  97 N3G18       N/A
$$

HIZ016-170300-
KAHOOLAWE-

CITY           SKY/WX    TMP DP  RH WIND       PRES   REMARKS
KAHOOLAWE*     NOT AVBL
HAKIOAWA*        N/A     76  65  67 MISG      30.36R
HONOKANAIA*      N/A     83  61  47 NE24G41   29.84F
KANELOA*         N/A     81  64  57 E26G45    29.99S
KEALIALALO*    NOT AVBL
LUA MAKIKA*    NOT AVBL
$$

HIZ014>015-170300-
LANAI-

CITY           SKY/WX    TMP DP  RH WIND       PRES   REMARKS
LANAI CITY     FAIR      78  62  57 NE23G30   29.98S
LANAI 1*       NOT AVBL
$$

HIZ017>028-170300-
MAUI-

CITY           SKY/WX    TMP DP  RH WIND       PRES   REMARKS
KAHULUI        MOSUNNY   85  66  53 NE21G32   29.95S
KAPALUA-W MAUI MOSUNNY   79  64  61 NE14G26   29.95
HANA AIRPORT   NOT AVBL
HANA*            N/A     77 N/A N/A E6G14       N/A
HALEAKALA SUMM   N/A     39  37  93 E21G44      N/A  WCI  29
MAALAEA BAY*     N/A     82 N/A N/A NE23G38     N/A
HALEAKALA*     NOT AVBL
KAUPO GAP*     NOT AVBL
KULA 1*          N/A     56  54  93 W2G8        N/A
$$

HIZ023>026-170300-
BIG ISLAND OF HAWAII COAST AND LOWER SLOPES-

CITY           SKY/WX    TMP DP  RH WIND       PRES   REMARKS
KAILUA KONA    MOSUNNY   86  64  47 S14       29.85S
HILO           HVY RAIN  75  68  78 CALM      29.98R VSB 3/4
HONOKAA*         N/A     75 N/A N/A VRB1        N/A
KAWAIHAE MWT*    N/A     86 N/A N/A NE31G49     N/A
KAWAIHAE*        N/A     84 N/A N/A NE24G37   29.82R
SOUTH POINT*     N/A     79 N/A N/A N26G41      N/A
UPOLU AIRPORT* NOT AVBL
KAMUELA*         N/A     77  64  65 NE12      30.06
HAKALAU*         N/A     57  47  69 N3          N/A
KALOKO-HONOKO*   N/A     84  66  54 SE9G15    29.86R
PALI 2*          N/A     70  57  64 SW24G35     N/A
KEALAKOMO*       N/A     82  63  51 N21G31      N/A
KAUPULEHU*     NOT AVBL
KAPAPALA*        N/A     80  54  40 NE12G26     N/A
LOWER KAHUKU*    N/A    108 N/A N/A E3G15       N/A
PUHE CS*         N/A     84  54  34 NE26G46     N/A
PUHO CS*         N/A     83  70  65 SW1         N/A
PTA KEAMUKU*     N/A     72  55  56 NE26G41     N/A
WAIKOLOA*        N/A     81  59  47 E26G46      N/A
$$

HIZ027>028-170300-
BIG ISLAND OF HAWAII INTERIOR AND SUMMMITS-

CITY           SKY/WX    TMP DP  RH WIND       PRES   REMARKS
BRADSHAW FIELD SUNNY     64  46  51 S15G23    30.21R
MK VISITOR CEN   N/A     55   5  13 E13G25      N/A
MAUNA KEA*       N/A     37 -15  10 NE43G55     N/A  WCI  23
MAUNA LOA*       N/A     54 -33   2 MISG        N/A
MAUNA LOA 1*   NOT AVBL
PTA KIPUKA*      N/A     73  50  43 W15G30      N/A
PTA RANGE 17*    N/A     70  52  52 NW17G31     N/A
PTA WEST*        N/A     70  55  60 W12G29      N/A
NENE CABIN*      N/A     57  43  58 E10G17      N/A
AHUMOA*        NOT AVBL
PTA PORTABLE*  NOT AVBL
PUU MALI*        N/A     57  46  67 E26G37      N/A
$$

HIC003-170300-
NORTHWEST ISLANDS-

CITY           SKY/WX    TMP DP  RH WIND       PRES   REMARKS
MIDWAY ISLAND  CLOUDY    82  75  78 E21       30.11S
MIDWAY NOS*      N/A     79 N/A N/A MISG      30.10S
FRENCH FRIGATE NOT AVBL
$$

PHZ110>124-180-170300-
BUOY REPORTS

STATION/POSITION TIME  TEMP    WIND        PRES    WAVE   SWELL
                       AIR SEA DIR/SP/G            HT/PER HT/DIR
                 (UTC) (F)     (DEG/KT/KT) (MB)    (FT/S) (FT/D)
BUOY 51001       0220   76 81   90/ 12/ 16 1018.1
BUOY 51101       0150   79 81   70/ 21/ 23 1017.8R  11/10   5/ 90
BUOY 51100       NOT AVBL
BUOY 51002       0220   80 80   60/ 21/ 27 1010.8
BUOY 51003       0150   81 82   70/ 19/ 23 1012.1F  12/10  10/ 90
BUOY 51004       0220   79 81   60/ 19/ 23 1011.5
WAIMEA BAY#      0202      78                N/A     8/ 9   3/330
MOKAPU POINT#    0204      81                N/A    11/10   3/ 70
LANAI#           NOT AVBL
BARBERS PT 2#    NOT AVBL
PAUWELA#         NOT AVBL
HILO#            0157      80                N/A    10/ 9   5/340
KANEOHE BAY#     NOT AVBL
KANEOHE BAY 2#   NOT AVBL
HANALEI#         0222      81                N/A    10/11   5/ 70
KAHULUI HARBOR   0218   79 80   50/ 20/ 26 1014.7
HONOLULU HARBOR  0218   77 81   60/ 10/ 16 1015.5
PEARL HARBOR#    0200      81                N/A     4/17   2/170
KILO NALU        NOT AVBL
HILO HARBOR      NOT AVBL
MOKUOLOE         0136   79 81   70/ 18/ 21 1015.0F
NAWILIWILI       0218   79      50/ 14/ 21 1015.7
WHOTS BUOY       NOT AVBL
BUOY 51028       NOT AVBL
$$

......................KEY........................................
  SKY/WX - SKY CONDITIONS/PRESENT WEATHER
  TMP    - TEMPERATURE IN FAHRENHEIT
  DWPT   - DEWPOINT IN FAHRENHEIT
  RH     - RELATIVE HUMIDITY IN PERCENT
  WIND   - DIRECTION AND SPEED /MPH FOR ISLANDS...KTS FOR BUOYS/
  PRES   - MEAN SEA LEVEL PRESSURE IN INCHES OF HG
  VSB    - VISIBILITY IN MILES
  HX     - HEAT INDEX
  WCI    - WIND CHILL INDEX
  VRB    - VARIABLE WIND DIRECTION
  N/A    - NOT AVAILABLE



USA.gov is the U.S. government's official web portal to all federal, state and local government web resources and services.